5 day graph

You are here

Hive Data

Page: 1 of 16645  Records: 998690

Row Date Time Hive Temp Hive Humidity Outside Temp Outside Humidity Bottom Board Temp Outside Wall Temp Electronics Temp Light Levels inHG Fan Heat Cover Notes
Clear Sorted By: Notes ascending, Bottom Board Temp ascending, Row descending
View 481 May 4 2014 8:46:44pm 82.4 60 52.88 76 78.35 58.55 80.6 2 29.13 0 0 0 1/2 gallon sugar water mix
View 507053 Jun 3 2015 4:23:49pm 92.48 51 63.86 66 63.05 70.7 86 189 29.31 0 0 1 Added honey super. Now 5 medium boxes. Added honey super to Kimmi's and is also 5 boxes. Added 3rd medium to Pink hive. Replaced hive bodies(2) on swarm hive. Removed one box from Kimmi Nuc split (found queen) and this hive needs some stores.
View 447882 Apr 18 2015 3:48:58pm 81.32 42 70.16 38 83.75 72.95 91.4 150 29.53 0 0 1 Added new medium filled with foundationless. Moved the two black frames up into this box and put 2 undrawn frames in the second to top box. Now has mediums boxes. Kimmi's also got pyramided up to 3 boxes on foundation.
View 29747 May 25 2014 1:37:46pm 82.94 47 67.64 52 75.65 72.5 87.8 642 29.29 0 0 1 Andy, my mentor, just dropped in and wanted to look. Opened one hive, he didn't use smoke and I got stung in bottom left eyelid and right arm. Queen is laying.
View 303747 Dec 27 2014 11:08:33am 62.06 66 45.14 89 44.15 45.05 55.4 261 29.38 0 0 0 Changed logging to every 10 minutes.
View 303750 Dec 28 2014 11:35:16am 60.26 70 41.72 84 41.9 42.35 53.6 264 29.47 0 0 0 Changed logging to every 6 minutes. 10 failed. Possible timeout setting on the server. Need to investigate drop of online data.
View 31294 May 26 2014 3:49:51pm 86.72 40 71.96 47 77 79.7 86 971 29.41 0 0 1 Checked Sammi's hive. Straightened up comb. Saw eggs. Put quilt on both boxes.
View 85564 Jul 9 2014 12:29:55pm 89.6 58 92.48 41 87.35 86.45 98.6 949 29.28 0 0 1 Checked to see how the loaner frame did. Queen cells again! No queen to be found.
View 63687 Jun 18 2014 5:54:43pm 83.66 49 67.1 52 74.3 73.85 86 910 29.34 0 0 1 Checked. Not much brood or bees. Bunch of dead bees and larva on bottom board. Saw queen.
View 420995 Mar 30 2015 3:29:08pm 84.38 62 68.36 51 81.5 76.55 91.4 128 29.17 0 0 1 Checkerboard from 2 to 3 boxes. Foundation only on the 10 new frames. Found hatched drones and drone cells.
View 3104 May 6 2014 5:19:30pm 85.28 63 60.44 63 83.75 62.6 82.4 783 29.28 0 0 1 Drawn comb check. Still have frames with foundation. Queen cells!
View 25693 May 22 2014 4:53:57pm 89.6 43 81.86 39 91.85 85.1 102.2 896 29.32 1 0 1 Found queen. No eggs.
View 78420 Jul 2 2014 2:25:26pm 86.9 51 87.98 36 80.6 92.3 96.8 956 29.2 0 0 1 Gave hive a frame of brood from Kimmi's hive. Including the bees on the frame. Hope this helps them start to grow.
View 91598 Jul 13 2014 7:26:23pm 93.38 49 80.6 58 89.15 81.05 98.6 533 29.33 0 0 1 Hive has queen cells. Took one frame with a QC and a frame of stores and made a split. Now have a medium Nuc with one QC. Not sure when they were capped.
View 39892 Jun 1 2014 5:56:26pm 91.76 41 76.82 42 85.1 81.05 93.2 916 29.28 1 0 1 Inpected both hives. Found both queens. Neighbor kids helped. No one stung. Still have 4-5 combs to draw before adding a new box. Pics of queen in Sammi's hive.
View 48297 Jun 7 2014 7:48:42pm 93.02 32 73.4 41 82.4 74.75 96.8 745 29.43 1 0 1 Inspected all 3 hives. Found queen in Sammi's and Kimmi's. The swarm hive was all clustered on the side wall and was building comb from the edge of the frame and not the center of the frame. Moved the partaly draw frame to the middle and surrounded by other frames being worked. Did not see queen. Bees are very dark. Fed swarm hive about 3/4 gallon Sunday night (next day)
View 181289 Sep 27 2014 1:11:46pm 87.62 60 82.94 54 77.9 81.5 86 974 29.37 0 0 1 Inspected all hives. Nuc got robbed, has no stores. Setting up feeding (damn!!) Saw queen in Sammi and Kimmi. Swarm has not moved into lower box but top box is very full.
View 1692 May 5 2014 5:21:38pm 82.76 61 56.66 79 81.5 60.8 78.8 839 29.28 0 0 0 Loaded new code to the Arduino to better log data to the server
View 71289 Jun 27 2014 12:37:55pm 79.7 54 69.8 65 69.35 72.5 82.4 915 29.05 0 0 0 Logging server was not running. Started logging server
View 307830 Jan 1 2015 5:20:43pm 67.28 54 30.74 62 47.75 45.05 57.2 256 29.51 0 0 0 Moved hive to new location. Now with other 3 hives. Outdoor temp should be more accurate now. The hive is no longer 18 inchs from the South side of a white wall.
View 722244 Nov 29 2015 9:15:52am 62.06 54 21.38 80 18.05 26.6 37.4 469 29.47 0 0 0 NA
View 722243 Nov 29 2015 9:14:52am 61.88 55 21.38 81 18.05 26.6 37.4 469 29.47 0 0 0 NA
View 722242 Nov 29 2015 9:13:52am 61.7 47 21.38 80 18.05 26.6 37.4 469 29.47 0 0 0 NA
View 722241 Nov 29 2015 9:12:51am 61.7 48 21.2 80 18.05 26.6 37.4 469 29.47 0 0 0 NA
View 722240 Nov 29 2015 9:11:51am 61.7 44 21.2 80 18.05 26.6 37.4 468 29.47 0 0 0 NA
View 722239 Nov 29 2015 9:10:51am 61.88 48 21.2 80 18.05 26.6 37.4 469 29.46 0 0 0 NA
View 722238 Nov 29 2015 9:09:51am 62.06 44 21.2 81 18.05 26.6 37.4 469 29.46 0 0 0 NA
View 722237 Nov 29 2015 9:08:51am 62.06 48 21.02 80 18.05 26.6 37.4 468 29.46 0 0 0 NA
View 722236 Nov 29 2015 9:07:50am 61.88 57 21.02 80 18.05 26.6 37.4 468 29.47 0 0 0 NA
View 722235 Nov 29 2015 9:06:50am 61.7 53 20.84 80 18.05 26.6 37.4 468 29.47 0 0 0 NA
View 722234 Nov 29 2015 9:05:50am 61.7 63 20.84 80 18.05 26.6 37.4 464 29.47 0 0 0 NA
View 722233 Nov 29 2015 9:04:50am 61.52 52 20.84 80 18.05 26.6 37.4 463 29.47 0 0 0 NA
View 722232 Nov 29 2015 9:03:50am 61.52 48 20.84 80 18.05 26.6 37.4 463 29.47 0 0 0 NA
View 722231 Nov 29 2015 9:02:49am 61.52 50 20.66 80 18.05 26.6 35.6 465 29.47 0 0 0 NA
View 722230 Nov 29 2015 9:01:49am 61.34 51 20.66 79 18.05 26.6 35.6 463 29.47 0 0 0 NA
View 722229 Nov 29 2015 9:00:49am 61.34 50 20.66 79 18.05 26.6 35.6 467 29.47 0 0 0 NA
View 722228 Nov 29 2015 8:59:49am 61.34 45 20.66 79 18.05 26.6 35.6 466 29.47 0 0 0 NA
View 722227 Nov 29 2015 8:58:49am 61.34 47 20.48 79 18.05 26.6 35.6 466 29.47 0 0 0 NA
View 722226 Nov 29 2015 8:57:48am 61.16 49 20.66 79 18.05 26.6 35.6 465 29.47 0 0 0 NA
View 722225 Nov 29 2015 8:56:48am 61.34 41 20.48 79 18.05 26.6 35.6 466 29.47 0 0 0 NA
View 722224 Nov 29 2015 8:55:48am 61.34 42 20.48 79 18.05 26.6 35.6 465 29.46 0 0 0 NA
View 722223 Nov 29 2015 8:54:48am 61.34 47 20.48 80 18.05 26.6 35.6 466 29.46 0 0 0 NA
View 722222 Nov 29 2015 8:53:48am 61.34 49 20.48 80 18.05 26.6 35.6 463 29.46 0 0 0 NA
View 722221 Nov 29 2015 8:52:47am 61.16 47 20.3 80 18.05 26.6 35.6 465 29.47 0 0 0 NA
View 722220 Nov 29 2015 8:51:47am 61.16 47 20.3 80 18.05 26.6 35.6 465 29.47 0 0 0 NA
View 722219 Nov 29 2015 8:50:47am 61.16 44 20.3 80 18.05 26.6 35.6 465 29.47 0 0 0 NA
View 722218 Nov 29 2015 8:49:47am 60.98 45 20.12 79 18.05 26.6 35.6 465 29.47 0 0 0 NA
View 722217 Nov 29 2015 8:48:47am 60.8 49 20.12 79 18.05 26.6 35.6 465 29.46 0 0 0 NA
View 722216 Nov 29 2015 8:47:46am 60.8 43 20.12 80 18.05 26.6 35.6 464 29.46 0 0 0 NA
View 722215 Nov 29 2015 8:46:46am 60.62 45 20.12 80 18.05 26.6 35.6 464 29.47 0 0 0 NA
View 722214 Nov 29 2015 8:45:46am 60.44 43 20.12 80 18.05 26.6 35.6 464 29.47 0 0 0 NA
View 722213 Nov 29 2015 8:44:46am 60.44 45 20.12 80 18.05 26.6 35.6 464 29.46 0 0 0 NA
View 722212 Nov 29 2015 8:43:46am 60.26 41 19.94 81 18.05 27.05 35.6 464 29.46 0 0 0 NA
View 722211 Nov 29 2015 8:42:46am 60.26 40 19.94 80 18.05 27.05 35.6 464 29.46 0 0 0 NA
View 722210 Nov 29 2015 8:41:45am 60.26 39 19.94 80 18.05 26.6 35.6 464 29.46 0 0 0 NA
View 722209 Nov 29 2015 8:40:45am 60.26 40 19.94 80 18.05 26.6 35.6 464 29.46 0 0 0 NA
View 722208 Nov 29 2015 8:39:45am 60.26 40 19.94 80 18.05 26.6 35.6 464 29.46 0 0 0 NA
View 722207 Nov 29 2015 8:38:45am 60.08 39 19.76 79 18.05 26.6 35.6 463 29.46 0 0 0 NA
View 722206 Nov 29 2015 8:37:44am 60.08 43 19.76 80 18.05 26.6 35.6 463 29.46 0 0 0 NA
View 722205 Nov 29 2015 8:36:44am 59.9 42 19.76 80 18.05 26.6 35.6 459 29.46 0 0 0 NA